Precipitable_Water
0.69 0.68 0.66 0.66 0.65 0.63 0.62 0.64 0.64 0.62 0.59 0.58 0.56 0.55 0.54 0.54 0.53 0.53 0.51 0.50 0.48 0.44 0.41 0.40 0.41 0.49 0.43 0.34 0.35 0.36 0.43 0.51 0.55 0.54 0.47 0.45 0.42 0.43 0.37 0.41 0.41 0.34 0.34 0.36 0.36 0.36 0.35
0.64 0.61 0.58 0.60 0.60 0.60 0.60 0.61 0.60 0.57 0.56 0.56 0.55 0.53 0.52 0.51 0.49 0.48 0.47 0.45 0.43 0.42 0.40 0.40 0.39 0.51 0.40 0.23 0.30 0.39 0.45 0.51 0.42 0.45 0.49 0.52 0.49 0.49 0.43 0.42 0.39 0.38 0.37 0.36 0.38 0.38 0.36
0.57 0.56 0.53 0.50 0.51 0.53 0.53 0.53 0.55 0.55 0.56 0.55 0.55 0.53 0.50 0.48 0.47 0.45 0.43 0.41 0.37 0.35 0.37 0.39 0.43 0.49 0.35 0.22 0.24 0.25 0.35 0.37 0.37 0.35 0.37 0.47 0.53 0.50 0.47 0.41 0.44 0.42 0.35 0.37 0.37 0.38 0.37
0.55 0.54 0.50 0.47 0.46 0.48 0.48 0.46 0.44 0.46 0.47 0.47 0.46 0.46 0.46 0.47 0.46 0.44 0.40 0.36 0.32 0.29 0.30 0.33 0.51 0.48 0.27 0.30 0.33 0.31 0.34 0.30 0.33 0.30 0.35 0.43 0.48 0.47 0.46 0.48 0.44 0.38 0.36 0.27 0.35 0.39 0.40
0.54 0.54 0.51 0.48 0.49 0.49 0.46 0.44 0.42 0.44 0.42 0.43 0.42 0.43 0.42 0.44 0.43 0.40 0.37 0.32 0.26 0.24 0.27 0.35 0.42 0.40 0.25 0.46 0.36 0.34 0.39 0.31 0.29 0.26 0.27 0.37 0.41 0.41 0.44 0.39 0.36 0.38 0.28 0.29 0.30 0.42 0.42
0.45 0.47 0.49 0.45 0.46 0.46 0.50 0.47 0.45 0.43 0.48 0.47 0.45 0.42 0.43 0.46 0.43 0.37 0.32 0.27 0.21 0.35 0.37 0.47 0.47 0.32 0.31 0.22 0.29 0.31 0.39 0.36 0.39 0.37 0.23 0.25 0.28 0.28 0.34 0.36 0.24 0.29 0.31 0.33 0.30 0.39 0.45
0.45 0.44 0.46 0.46 0.44 0.43 0.44 0.48 0.44 0.42 0.42 0.47 0.45 0.42 0.42 0.47 0.43 0.37 0.31 0.26 0.25 0.24 0.38 0.29 0.32 0.27 0.26 0.33 0.38 0.27 0.26 0.29 0.31 0.37 0.21 0.24 0.20 0.18 0.21 0.32 0.36 0.36 0.34 0.31 0.35 0.40 0.43
0.42 0.48 0.48 0.47 0.47 0.48 0.46 0.45 0.45 0.44 0.45 0.45 0.44 0.42 0.38 0.45 0.42 0.36 0.38 0.27 0.35 0.39 0.20 0.25 0.21 0.20 0.24 0.24 0.19 0.16 0.22 0.21 0.24 0.29 0.34 0.22 0.17 0.22 0.26 0.27 0.28 0.28 0.27 0.28 0.33 0.40 0.45
0.43 0.44 0.44 0.42 0.40 0.41 0.43 0.44 0.44 0.44 0.47 0.46 0.45 0.42 0.40 0.44 0.44 0.32 0.35 0.36 0.50 0.46 0.19 0.12 0.11 0.10 0.13 0.13 0.10 0.08 0.16 0.17 0.19 0.25 0.32 0.26 0.23 0.25 0.23 0.23 0.23 0.23 0.25 0.28 0.30 0.38 0.43
0.40 0.39 0.38 0.38 0.41 0.42 0.42 0.43 0.43 0.44 0.44 0.43 0.43 0.46 0.44 0.43 0.33 0.34 0.31 0.48 0.55 0.50 0.14 0.06 0.08 0.10 0.14 0.16 0.15 0.21 0.20 0.17 0.17 0.17 0.28 0.30 0.35 0.29 0.21 0.20 0.23 0.19 0.26 0.28 0.32 0.36 0.31
0.42 0.41 0.40 0.40 0.40 0.42 0.43 0.45 0.47 0.46 0.45 0.45 0.45 0.45 0.45 0.45 0.39 0.28 0.39 0.51 0.53 0.44 0.05 0.03 0.16 0.30 0.22 0.17 0.26 0.25 0.30 0.22 0.15 0.17 0.23 0.18 0.26 0.28 0.25 0.26 0.25 0.22 0.33 0.28 0.30 0.34 0.34
0.38 0.38 0.39 0.38 0.39 0.38 0.40 0.47 0.47 0.45 0.47 0.50 0.51 0.49 0.47 0.40 0.41 0.40 0.49 0.53 0.42 0.16 0.06 0.04 0.24 0.21 0.22 0.22 0.21 0.28 0.25 0.28 0.25 0.21 0.21 0.21 0.28 0.27 0.28 0.29 0.30 0.31 0.30 0.33 0.33 0.35 0.27
0.35 0.37 0.37 0.37 0.39 0.40 0.41 0.44 0.45 0.45 0.44 0.45 0.47 0.48 0.45 0.47 0.30 0.49 0.57 0.42 0.13 0.11 0.08 0.04 0.05 0.26 0.21 0.20 0.19 0.23 0.26 0.21 0.16 0.14 0.13 0.16 0.18 0.23 0.27 0.24 0.29 0.30 0.27 0.23 0.26 0.25 0.23
0.37 0.37 0.38 0.38 0.40 0.43 0.43 0.43 0.43 0.43 0.42 0.43 0.45 0.45 0.42 0.48 0.51 0.53 0.52 0.33 0.12 0.10 0.06 0.11 0.19 0.23 0.32 0.29 0.29 0.29 0.25 0.22 0.26 0.22 0.16 0.14 0.11 0.16 0.21 0.24 0.25 0.28 0.29 0.24 0.21 0.22 0.24
0.39 0.39 0.40 0.39 0.40 0.43 0.41 0.41 0.40 0.43 0.45 0.46 0.46 0.44 0.38 0.44 0.56 0.53 0.38 0.19 0.12 0.11 0.16 0.19 0.16 0.18 0.20 0.28 0.26 0.31 0.28 0.24 0.29 0.29 0.20 0.18 0.15 0.25 0.22 0.22 0.30 0.27 0.27 0.32 0.28 0.32 0.31
0.36 0.38 0.40 0.38 0.39 0.40 0.41 0.42 0.41 0.43 0.44 0.46 0.41 0.38 0.33 0.47 0.55 0.51 0.31 0.16 0.15 0.18 0.24 0.23 0.16 0.20 0.19 0.22 0.23 0.27 0.27 0.34 0.31 0.36 0.34 0.30 0.19 0.26 0.32 0.28 0.26 0.27 0.33 0.28 0.30 0.23 0.22
0.39 0.37 0.38 0.38 0.39 0.40 0.40 0.42 0.43 0.42 0.45 0.49 0.37 0.27 0.35 0.50 0.52 0.41 0.20 0.18 0.17 0.20 0.26 0.23 0.19 0.22 0.24 0.24 0.26 0.30 0.32 0.34 0.47 0.38 0.40 0.35 0.27 0.28 0.33 0.23 0.22 0.29 0.29 0.34 0.36 0.35 0.24
0.39 0.37 0.40 0.42 0.39 0.38 0.39 0.40 0.41 0.43 0.46 0.45 0.33 0.19 0.48 0.54 0.32 0.32 0.23 0.23 0.22 0.19 0.27 0.25 0.21 0.20 0.22 0.24 0.23 0.25 0.35 0.37 0.49 0.46 0.34 0.38 0.30 0.28 0.30 0.38 0.39 0.32 0.30 0.30 0.31 0.27 0.29
0.40 0.39 0.40 0.38 0.39 0.42 0.43 0.41 0.45 0.46 0.46 0.41 0.29 0.27 0.43 0.46 0.26 0.25 0.27 0.25 0.23 0.20 0.23 0.23 0.21 0.18 0.20 0.20 0.17 0.26 0.36 0.36 0.37 0.46 0.37 0.38 0.28 0.22 0.28 0.35 0.39 0.33 0.33 0.32 0.29 0.28 0.23
0.39 0.40 0.40 0.43 0.42 0.43 0.45 0.43 0.46 0.46 0.46 0.44 0.33 0.22 0.30 0.38 0.37 0.31 0.27 0.29 0.26 0.27 0.23 0.24 0.24 0.21 0.15 0.17 0.21 0.22 0.28 0.31 0.28 0.31 0.39 0.34 0.24 0.20 0.21 0.31 0.38 0.29 0.37 0.42 0.40 0.26 0.23
0.38 0.40 0.41 0.43 0.43 0.43 0.43 0.45 0.45 0.48 0.47 0.44 0.34 0.25 0.29 0.24 0.30 0.31 0.30 0.27 0.27 0.28 0.27 0.25 0.20 0.18 0.16 0.15 0.18 0.19 0.25 0.26 0.26 0.25 0.28 0.30 0.21 0.21 0.24 0.27 0.28 0.27 0.27 0.31 0.39 0.38 0.30
0.39 0.41 0.43 0.43 0.43 0.42 0.40 0.42 0.47 0.47 0.49 0.40 0.28 0.27 0.31 0.27 0.29 0.30 0.29 0.28 0.24 0.26 0.29 0.28 0.22 0.18 0.18 0.15 0.16 0.16 0.19 0.19 0.22 0.30 0.25 0.28 0.21 0.23 0.17 0.24 0.25 0.27 0.24 0.24 0.31 0.33 0.32
0.40 0.42 0.42 0.42 0.43 0.41 0.39 0.40 0.44 0.48 0.48 0.38 0.39 0.39 0.33 0.25 0.24 0.23 0.24 0.28 0.29 0.28 0.26 0.29 0.30 0.26 0.22 0.24 0.27 0.27 0.27 0.23 0.25 0.29 0.28 0.27 0.24 0.21 0.18 0.21 0.20 0.17 0.22 0.22 0.20 0.24 0.26
0.38 0.42 0.42 0.42 0.41 0.39 0.41 0.43 0.40 0.45 0.47 0.44 0.41 0.39 0.30 0.20 0.23 0.21 0.24 0.28 0.28 0.31 0.28 0.30 0.31 0.31 0.31 0.40 0.41 0.33 0.30 0.27 0.26 0.27 0.32 0.27 0.25 0.24 0.20 0.23 0.15 0.15 0.25 0.24 0.22 0.27 0.30
0.37 0.41 0.42 0.42 0.40 0.39 0.43 0.44 0.43 0.42 0.45 0.43 0.45 0.40 0.31 0.21 0.24 0.24 0.25 0.27 0.30 0.31 0.29 0.29 0.29 0.34 0.42 0.36 0.28 0.25 0.25 0.25 0.22 0.21 0.25 0.28 0.27 0.22 0.20 0.21 0.20 0.22 0.27 0.28 0.27 0.33 0.41
0.33 0.36 0.41 0.42 0.44 0.40 0.42 0.44 0.44 0.45 0.44 0.43 0.43 0.48 0.39 0.26 0.21 0.26 0.26 0.29 0.26 0.27 0.27 0.28 0.34 0.41 0.39 0.32 0.31 0.19 0.17 0.18 0.13 0.13 0.15 0.22 0.27 0.25 0.24 0.17 0.13 0.27 0.36 0.37 0.37 0.29 0.49
0.33 0.39 0.41 0.43 0.44 0.42 0.42 0.43 0.45 0.46 0.46 0.44 0.40 0.47 0.42 0.29 0.30 0.30 0.25 0.27 0.32 0.31 0.28 0.31 0.32 0.31 0.40 0.28 0.24 0.20 0.20 0.30 0.22 0.19 0.17 0.16 0.21 0.19 0.18 0.23 0.21 0.37 0.41 0.38 0.24 0.30 0.45
0.34 0.38 0.42 0.43 0.44 0.43 0.43 0.43 0.45 0.48 0.50 0.48 0.41 0.47 0.42 0.32 0.31 0.33 0.34 0.30 0.31 0.31 0.27 0.31 0.29 0.32 0.33 0.28 0.24 0.21 0.22 0.25 0.28 0.35 0.29 0.20 0.21 0.23 0.25 0.21 0.18 0.37 0.39 0.34 0.44 0.45 0.41
0.35 0.38 0.43 0.46 0.45 0.43 0.41 0.43 0.45 0.48 0.50 0.52 0.40 0.50 0.51 0.39 0.33 0.42 0.40 0.39 0.35 0.35 0.33 0.35 0.33 0.36 0.37 0.32 0.29 0.29 0.25 0.30 0.30 0.26 0.43 0.26 0.26 0.25 0.24 0.21 0.31 0.41 0.46 0.55 0.49 0.44 0.41
Wind_Speed
26 25 25 26 26 26 27 28 28 29 29 30 30 31 31 31 31 32 32 33 33 33 32 32 31 30 27 26 26 27 28 25 23 23 23 22 23 23 25 22 24 26 26 26 27 26 26
25 25 24 24 25 25 26 26 27 28 29 30 31 31 32 33 33 34 34 34 34 34 33 33 32 30 28 28 25 25 23 25 24 24 24 24 22 23 25 24 25 25 27 28 25 25 24
24 24 24 25 25 25 26 27 28 28 29 30 31 32 33 34 34 35 35 35 35 35 34 33 32 30 31 31 29 30 29 27 25 25 25 26 25 25 22 24 25 25 27 28 28 25 25
23 23 24 24 25 26 27 28 30 31 32 32 33 33 34 35 35 36 37 38 37 36 35 33 31 30 32 29 32 31 30 29 28 28 27 25 27 27 26 25 26 24 25 24 23 23 24
22 23 24 25 26 28 29 30 31 32 33 35 35 36 36 37 37 37 38 39 38 37 34 32 30 29 31 26 25 26 26 26 26 28 28 27 25 26 25 24 24 24 26 28 28 24 24
23 24 25 26 28 29 31 32 33 34 35 36 36 37 38 38 38 39 40 40 37 35 31 30 30 28 28 26 21 22 23 23 24 24 25 26 24 25 25 24 26 23 27 29 30 25 24
24 25 27 28 30 31 33 33 35 36 37 37 38 38 38 39 39 40 39 34 29 29 30 30 28 29 28 25 28 25 23 24 24 25 26 25 26 28 27 29 30 28 29 31 28 25 22
26 27 28 30 31 33 34 35 37 38 38 39 40 41 41 41 40 40 37 31 32 33 36 37 38 41 39 35 36 34 28 26 25 27 25 26 32 27 27 28 30 30 32 32 32 28 26
27 28 30 31 33 34 36 37 38 38 39 40 41 42 43 42 42 38 36 36 36 34 35 39 38 38 35 33 37 37 29 28 27 27 27 29 25 26 27 27 29 31 30 28 30 27 29
28 30 32 33 34 36 37 39 40 41 42 42 43 43 43 43 41 37 36 34 34 34 33 36 33 33 32 29 30 32 33 29 27 30 25 29 29 29 28 29 27 28 27 28 28 24 25
30 32 34 35 36 38 39 40 40 41 42 42 42 42 42 41 41 37 36 37 35 30 27 28 26 24 24 26 22 22 23 28 32 30 24 31 23 26 30 29 28 28 23 25 26 24 24
32 34 35 36 38 39 40 39 39 41 41 41 42 42 42 41 40 37 36 33 28 25 27 24 22 25 24 27 25 21 20 24 23 28 30 32 27 25 25 26 26 23 21 21 22 18 25
33 35 36 38 38 39 38 39 40 40 41 42 43 43 43 41 37 34 30 28 24 25 24 23 21 23 26 26 27 26 23 23 21 19 26 27 33 30 27 25 26 25 23 17 15 19 20
35 36 37 38 39 38 38 39 39 40 41 41 42 43 42 39 33 30 24 23 25 25 27 18 16 14 19 20 26 24 24 22 24 23 17 20 21 29 28 29 23 23 20 19 18 18 16
36 37 37 38 38 37 37 38 39 39 39 38 39 35 32 25 22 21 23 22 21 20 15 15 19 16 16 15 14 14 21 21 21 23 21 17 20 16 22 30 27 23 25 23 22 18 12
36 37 37 38 38 38 38 38 38 36 35 34 31 28 21 17 16 17 19 23 22 19 17 16 15 14 12 10 11 12 17 12 19 17 20 17 16 18 19 24 28 26 19 20 21 23 19
37 37 37 37 37 37 37 37 36 34 32 27 23 17 12 10 14 15 17 17 19 21 18 16 16 14 12 9 11 13 14 13 11 14 17 16 15 14 10 15 23 21 25 17 15 21 17
37 37 37 37 37 37 37 36 34 30 24 18 14 9 6 4 10 12 14 15 17 21 20 19 18 18 16 14 11 9 9 10 12 12 13 15 13 13 13 9 12 24 22 20 19 17 15
36 36 35 36 36 36 35 32 29 22 16 14 11 11 10 7 12 10 12 16 18 20 20 17 16 17 17 16 13 9 10 9 8 7 8 12 12 12 10 7 7 12 16 17 25 23 22
35 35 34 35 34 33 30 26 20 15 13 11 10 8 7 9 9 10 11 11 14 16 19 20 18 16 17 17 17 16 14 8 10 10 10 11 12 9 12 10 10 10 7 10 11 19 22
34 33 33 32 30 28 24 20 17 15 14 12 11 10 9 7 5 11 13 14 14 10 12 14 16 17 17 19 19 19 19 16 13 16 13 11 13 12 12 12 10 12 12 10 11 16 15
32 32 31 29 27 24 21 19 16 16 15 15 12 12 11 13 11 8 8 9 15 13 10 12 13 16 17 19 22 21 22 20 17 14 16 15 15 14 16 14 16 17 17 17 17 14 14
31 30 29 27 26 23 21 19 17 16 16 15 15 16 15 14 13 12 10 9 10 14 13 13 13 15 16 16 18 22 22 23 21 19 16 16 15 13 15 15 16 18 18 19 20 20 17
30 29 28 27 25 22 21 20 19 19 18 16 14 14 13 14 14 15 15 15 13 11 12 14 13 10 12 11 14 19 21 22 23 22 19 16 15 14 14 13 15 14 13 14 14 14 14
30 29 27 26 24 22 21 20 19 20 20 19 17 15 14 14 14 15 15 13 12 11 14 14 13 11 10 9 11 12 13 17 21 26 23 19 16 14 13 14 14 13 11 10 11 8 9
30 29 27 25 23 23 22 20 20 19 19 19 19 19 16 15 16 19 15 13 11 10 10 10 12 12 9 7 6 9 10 12 13 16 27 24 19 15 12 14 13 11 8 9 11 12 9
28 27 26 26 25 23 23 21 19 19 19 19 19 20 17 16 18 18 17 14 12 10 8 7 8 8 8 8 8 8 9 7 8 11 12 21 19 20 17 12 14 14 13 11 11 12 12
27 26 25 23 22 21 20 21 21 20 19 19 18 20 17 15 17 19 18 19 16 14 10 9 6 6 7 7 8 8 8 7 5 8 12 16 16 16 18 15 14 10 14 12 11 12 12
27 26 23 22 21 21 20 20 19 19 19 19 18 19 19 17 14 13 17 19 21 19 15 10 10 7 5 6 8 7 9 6 5 2 9 10 15 12 16 15 11 11 10 11 10 12 12
Wind_Direction
287 288 288 289 290 290 290 290 289 290 290 289 290 290 291 291 290 289 289 289 287 287 286 285 285 285 280 271 266 264 266 262 261 259 255 253 248 251 253 257 256 258 264 265 268 267 268
284 286 288 290 291 292 293 292 292 292 292 291 291 291 291 291 291 290 289 289 287 286 284 283 282 279 271 270 268 264 265 262 259 255 253 250 250 251 257 255 257 262 265 266 269 272 271
283 286 287 290 290 291 293 294 294 295 294 293 293 293 292 291 291 290 289 289 287 284 282 281 280 274 268 264 266 267 266 261 260 256 253 250 251 251 259 262 261 265 270 268 268 270 270
284 286 289 291 292 293 293 294 295 293 294 294 294 294 294 292 291 291 290 288 286 282 280 279 276 272 268 269 268 264 261 260 258 256 254 253 251 253 254 261 263 266 267 269 268 268 268
287 287 290 293 294 295 295 296 297 297 294 294 293 293 292 292 292 291 291 289 285 279 277 274 272 269 271 271 264 261 256 256 256 255 250 251 252 251 254 257 261 258 264 268 272 266 268
287 290 293 295 296 297 295 296 296 297 296 295 294 294 292 291 291 292 293 291 283 277 271 268 267 270 268 264 260 260 257 258 257 253 250 245 251 250 249 248 252 257 261 264 266 264 263
291 293 294 296 298 298 298 297 297 298 297 296 295 295 293 291 291 292 292 289 281 275 270 264 263 262 267 264 268 262 259 259 254 251 247 243 245 246 246 248 254 260 261 263 267 268 267
293 295 297 299 299 299 299 299 298 299 297 295 295 294 292 290 290 290 287 279 280 276 274 267 264 264 262 264 266 261 259 258 250 246 248 246 246 247 249 251 251 252 256 262 267 266 266
295 297 299 300 301 301 301 302 301 300 299 297 296 294 292 289 289 285 280 278 279 279 272 268 262 261 259 252 256 257 249 249 249 248 243 245 251 244 245 248 251 253 254 259 261 261 258
296 299 301 303 302 303 303 302 300 299 298 297 297 295 294 289 286 281 276 279 278 278 271 268 260 259 252 251 257 251 244 242 244 249 246 250 248 247 242 246 246 255 256 258 261 258 259
296 298 300 302 302 303 303 302 300 300 299 297 297 296 293 288 283 279 272 277 275 269 267 263 251 252 248 236 253 247 239 234 240 242 238 246 248 244 246 247 243 252 253 253 256 253 256
295 298 300 302 303 304 304 303 303 303 302 301 297 296 295 290 280 273 274 270 265 254 256 259 249 249 242 241 246 247 239 236 242 243 247 252 252 249 250 253 250 249 251 254 251 249 253
296 298 301 302 303 304 304 303 304 303 302 301 299 296 293 288 280 267 269 258 248 246 257 252 255 246 239 241 241 239 231 229 235 235 242 250 249 250 248 252 252 241 239 245 251 242 249
296 298 301 303 304 302 303 303 303 303 303 303 300 298 293 285 272 257 249 242 239 243 242 261 276 268 245 234 236 231 229 231 232 240 245 238 251 237 239 236 237 235 230 229 234 239 253
296 298 299 302 303 303 303 303 304 303 304 304 305 302 295 279 257 241 234 234 236 235 237 271 267 244 231 224 241 241 232 234 234 229 236 245 243 248 239 234 230 230 234 235 240 245 242
295 297 299 300 301 302 302 302 303 303 304 305 303 305 292 267 239 228 229 233 233 240 262 265 255 240 249 258 260 262 234 246 244 240 227 240 249 247 256 224 227 225 227 225 225 235 240
294 296 297 299 300 301 301 302 301 300 301 302 303 300 290 252 219 225 228 231 242 244 251 250 252 253 256 253 253 242 245 248 241 242 236 236 238 235 235 217 218 220 220 223 233 234 231
293 295 297 298 299 300 301 300 299 297 293 294 293 283 269 234 217 230 235 239 241 251 250 253 238 241 243 260 245 257 232 230 224 256 227 231 224 218 228 245 240 219 219 215 220 223 231
292 294 295 297 299 300 301 298 297 290 279 285 281 269 251 249 219 239 249 251 247 245 245 245 250 238 243 245 244 245 221 228 225 223 235 228 224 211 212 232 245 217 221 231 230 228 232
290 292 295 297 299 299 299 295 290 277 267 269 273 263 245 237 243 253 260 259 262 249 245 247 247 249 243 241 244 231 234 239 233 217 238 223 218 216 208 197 209 227 230 222 238 225 225
288 291 294 296 297 297 295 288 277 268 259 255 252 249 246 244 271 266 261 256 269 259 246 252 242 244 247 244 247 238 246 248 257 235 237 232 229 233 231 234 244 250 241 224 237 245 230
286 289 292 293 293 292 287 277 270 262 252 248 250 247 253 252 262 282 257 265 251 262 247 260 258 248 248 242 243 246 248 246 241 244 233 233 237 241 236 240 244 251 244 241 242 240 237
283 287 288 289 288 285 279 271 260 257 247 249 247 251 253 251 255 259 252 287 277 269 258 250 254 257 257 252 248 249 253 238 237 241 241 229 230 236 236 249 257 245 240 244 246 245 244
280 283 284 284 283 277 273 265 257 250 244 244 244 248 248 251 248 248 255 261 270 271 264 257 260 254 247 256 258 248 246 238 233 232 233 231 230 234 240 242 237 240 246 247 229 240 238
277 279 280 280 278 270 269 261 254 246 244 241 240 240 247 250 250 248 252 263 267 275 263 261 255 256 248 265 252 242 236 237 234 228 229 227 229 234 229 225 246 246 235 227 222 226 239
275 273 275 275 272 267 262 257 249 244 241 238 239 239 246 250 243 242 253 252 252 264 265 260 251 237 231 231 243 231 234 228 220 224 222 221 222 218 219 217 222 212 238 235 235 225 245
270 270 269 271 269 263 253 247 244 240 238 237 241 236 239 247 244 243 235 239 246 247 250 257 268 241 226 225 228 221 225 223 220 218 206 207 213 213 216 224 230 221 246 252 230 228 240
265 265 268 265 263 256 247 240 241 241 236 235 235 227 231 242 246 242 243 239 240 234 240 259 259 222 227 220 225 225 213 214 203 238 215 202 204 213 212 219 226 233 231 230 225 236 243
260 261 259 260 259 249 241 238 232 233 234 230 230 227 232 239 241 251 244 238 237 238 241 243 226 229 222 235 230 221 207 219 243 254 192 194 200 198 206 217 224 229 226 231 236 251 242